Weather History for El Dorado, AR

Change the Weather History Date:

Saturday, January 19, 2013

  Actual Average Record
Temperature  
Mean Temperature 44 °F 44 °F  
Max Temperature 60 °F 55 °F 80 °F (1914)
Min Temperature 28 °F 33 °F -1 °F (1930)
Degree Days  
Heating Degree Days 21 21  
Month to date heating degree days 401 408  
Since 1 July heating degree days 1379 1495  
Cooling Degree Days 0 0  
Month to date cooling degree days 2 0  
Year to date cooling degree days 2 0  
Moisture  
Dew Point 29 °F    
Average Humidity 59    
Maximum Humidity 92    
Minimum Humidity 26    
Precipitation  
Precipitation 0.00 in 0.14 in 3.46 in (1979)
Month to date precipitation 3.02 2.53  
Year to date precipitation 3.02 2.53  
Snow  
Snow 0.00 in - - ()
Month to date snowfall 0.1  
Since 1 July snowfall 0.1  
Snow Depth 0.00 in    
Sea Level Pressure  
Sea Level Pressure 30.29 in    
Wind  
Wind Speed 3 mph (SSW)    
Max Wind Speed 13 mph    
Max Gust Speed 17 mph    
Visibility 10 miles    
Events      
T = Trace of Precipitation, MM = Missing Value Source: NWS Daily Summary

Daily Weather History Graph

Daily Weather History Graph

Search for Another Location

Airport:

Trip Planner

Search our weather history database for the weather conditions in past years. The results will help you decide how hot, cold, wet, or windy it might be!

Date:

Astronomy

Jan. 19, 2013 Rise Set
Actual Time 7:13 AM CST 5:30 PM CST
Civil Twilight 6:46 AM CST 5:57 PM CST
Nautical Twilight 6:16 AM CST 6:27 PM CST
Astronomical Twilight 5:47 AM CST 6:57 PM CST
Moon 11:54 AM CST (1/19) 12:52 AM CST (1/19)
Length of Visible Light 11h 10m
Length of Day
10h 17m
First Quarter, 57% of the Moon is Illuminated
Jan 19
First Quarter
Jan 26
Full
Feb 3
Last Quarter
Feb 10
New
Feb 17
First Quarter

Hourly Weather History & Observations

Time (CST) Temp. Windchill Dew Point Humidity Pressure Visibility Wind Dir Wind Speed Gust Speed Precip Events Conditions
12:53 AM 30.0 °F - 27.0 °F 88% 30.36 in 10.0 mi Calm Calm - N/A   Clear
1:53 AM 30.0 °F - 27.0 °F 88% 30.36 in 10.0 mi Calm Calm - N/A   Clear
2:53 AM 28.9 °F - 27.0 °F 92% 30.35 in 10.0 mi Calm Calm - N/A   Clear
3:53 AM 28.9 °F - 27.0 °F 92% 30.34 in 10.0 mi Calm Calm - N/A   Clear
4:53 AM 28.9 °F - 25.0 °F 85% 30.33 in 10.0 mi Calm Calm - N/A   Clear
5:53 AM 28.9 °F - 26.1 °F 89% 30.33 in 10.0 mi Calm Calm - N/A   Clear
6:53 AM 28.0 °F - 26.1 °F 92% 30.33 in 10.0 mi Calm Calm - N/A   Clear
7:53 AM 28.9 °F - 26.1 °F 89% 30.33 in 10.0 mi Calm Calm - N/A   Clear
8:53 AM 35.1 °F - 30.9 °F 85% 30.34 in 10.0 mi Calm Calm - N/A   Clear
9:53 AM 44.1 °F 40.1 °F 33.1 °F 65% 30.36 in 10.0 mi SSW 6.9 mph - N/A   Clear
10:53 AM 48.9 °F - 32.0 °F 52% 30.35 in 10.0 mi SSW 9.2 mph - N/A   Clear
11:53 AM 55.0 °F - 33.1 °F 43% 30.31 in 10.0 mi South 10.4 mph - N/A   Clear
12:53 PM 57.9 °F - 28.0 °F 32% 30.27 in 10.0 mi SSW 8.1 mph - N/A   Clear
1:53 PM 59.0 °F - 25.0 °F 27% 30.25 in 10.0 mi WSW 4.6 mph - N/A   Clear
2:53 PM 57.9 °F - 25.0 °F 28% 30.23 in 10.0 mi South 10.4 mph - N/A   Clear
3:53 PM 57.9 °F - 26.1 °F 30% 30.22 in 10.0 mi South 6.9 mph - N/A   Clear
4:53 PM 55.9 °F - 30.9 °F 39% 30.22 in 10.0 mi SSW 3.5 mph - N/A   Clear
5:53 PM 51.1 °F - 32.0 °F 48% 30.21 in 10.0 mi SSE 3.5 mph - N/A   Clear
6:53 PM 43.0 °F - 33.1 °F 68% 30.23 in 10.0 mi Calm Calm - N/A   Clear
7:53 PM 41.0 °F - 33.1 °F 73% 30.24 in 10.0 mi Calm Calm - N/A   Clear
8:53 PM 39.9 °F - 33.1 °F 77% 30.24 in 10.0 mi Calm Calm - N/A   Clear
9:53 PM 37.9 °F - 33.1 °F 83% 30.25 in 10.0 mi Calm Calm - N/A   Clear
10:53 PM 37.0 °F - 32.0 °F 82% 30.26 in 10.0 mi Calm Calm - N/A   Clear
11:53 PM 34.0 °F - 30.9 °F 89% 30.25 in 10.0 mi Calm Calm - N/A   Clear